THAICOM 6

Last updated on Tue Sep 22 2026 00:03:13 GMT+0000 (Coordinated Universal Time)

1 39500U 14002A 26264.43334376 -.00000126 00000+0 00000+0 0 9995 2 39500 0.0505 114.6150 0003553 41.4070 78.8357 1.00273256 46429
UTC large
Height (km)
Speed (km/s)
/
Latitude / Longitude
Inclination (degrees)
Orbital Period (minutes)
Azimuth
Elevation
Range (km)
Doppler Factor

Next 0 passes for location: London (51.5072 / 0.1276)

No passes found over London.
THAICOM 6